Skip Page Navigation
NASA JPL Caltech
NASA Logo - Jet Propulsion Laboratory + View the NASA Portal
+ Near-Earth Object (NEO) Program
Search JPL
JPL Home Earth Solar System Stars & Galaxies Technology
JPL Solar System Dynamics
BODIES ORBITS EPHEMERIDES TOOLS PHYSICAL DATA DISCOVERY FAQ SITE MAP
JPL Small-Body Database Browser
Search: [ help ]  
9959 (1991 VF2)
Classification: Main-belt Asteroid          SPK-ID: 2009959
Ephemeris | Orbit Diagram | Orbital Elements | Physical Parameters | Discovery Circumstances | Close-Approach Data ]

[ show orbit diagram ]
Orbital Elements at Epoch 2456800.5 (2014-May-23.0) TDB
Reference: JPL 3 (heliocentric ecliptic J2000)
 Element Value Uncertainty (1-sigma)   Units 
e .1398583825909186 5.4189e-08  
a 2.244098986393964 1.4165e-08 AU
q 1.930242931782984 1.2209e-07 AU
i 5.648144866028229 9.3096e-06 deg
node 216.2273296179742 5.7483e-05 deg
peri 247.0603077971709 6.8007e-05 deg
M 215.9989224291738 3.8848e-05 deg
tp 2457291.661913260476
(2015-Sep-26.16191326)
0.00013493 JED
period 1227.895594647924
3.36
1.1626e-05
3.183e-08
d
yr
n .2931845358588677 2.776e-09 deg/d
Q 2.557955041004944 1.6147e-08 AU
  Orbit Determination Parameters
   # obs. used (total)      810  
   data-arc span      8860 days (24.26 yr)  
   first obs. used      1989-03-02  
   last obs. used      2013-06-04  
   planetary ephem.      DE431  
   SB-pert. ephem.      SB431-BIG16  
   condition code      0  
   fit RMS      .53433  
   data source      ORB  
   producer      Otto Matic  
   solution date      2013-Aug-05 16:30:15  

Additional Information
 Earth MOID = .954773 AU 
 T_jup = 3.613 
[ show covariance matrix ]

Ephemeris | Orbit Diagram | Orbital Elements | Physical Parameters | Discovery Circumstances | Close-Approach Data ]

Physical Parameter Table
Parameter Symbol Value Units Sigma Reference Notes
absolute magnitude H 14.3 mag n/a MPO263438  

9959 (1991 VF2)          Discovered 1991-Nov-09 by Ueda, S., Kaneda, H. at Kushiro (399)
Reference: 19990202/Numbers.arcLast Updated: 2004-04-19

[ show close-approach data ]
Alternate Designations
 1991 VF2 = 1989 EZ3 
Ephemeris | Orbit Diagram | Orbital Elements | Physical Parameters | Discovery Circumstances | Close-Approach Data ]
ABOUT SSD CREDITS/AWARDS PRIVACY/COPYRIGHT GLOSSARY LINKS
FirstGov 2014-Apr-17 06:46 UT
(server date/time)  
NASA Home Page
Site Manager:   Donald K. Yeomans
Webmaster  Alan B. Chamberlin